Location: Kings Park
(40.8862°N, 73.2573°W)
Time: 04:57:02
(UTC+00:00)

Helios 1A Rocket - Pass Details

Date: 29 October 2020
Orbit: 562 x 587 km, 98.3° (Epoch: 27 November)

Event Time Altitude Azimuth Distance (km) Brightness Sun altitude
Rises 23:35:30 0° 175° (S) 2,792 6.4 -20.1°
Reaches altitude 10° 23:37:41 10° 179° (S) 1,895 5.5 -20.5°
Maximum altitude 23:41:44 57° 259° (W) 688 3.5 -21.2°
Drops below altitude 10° 23:45:46 10° 338° (NNW) 1,896 5.8 -22.0°
Sets 23:47:58 0° 343° (NNW) 2,795 6.7 -22.4°
